Location: CNYAC Observatory
(43.2150°N, 74.9500°W)
Time: 08:06:05
(UTC-04:00)

Daily predictions for brighter satellites

Satellite Brightness Start Highest point End
(mag) Time Altitude Azimuth Time Altitude Azimuth Time Altitude Azimuth
Envisat 3.4 20:16:40 10° SE 20:21:31 47° ENE 20:26:23 10° N
Lacrosse 5 rocket 2.4 20:18:32 10° WNW 20:21:56 36° SW 20:25:27 10° SSE
Cosmos 1939 Rocket 3.8 20:19:23 10° SE 20:22:49 29° ENE 20:26:13 10° N
Cosmos 1536 3.9 20:19:52 10° SSE 20:23:16 26° E 20:26:41 10° NNE
Cosmos 44 4.3 20:29:28 10° NW 20:33:40 42° WSW 20:37:59 10° S
Cosmos 1655 Rocket 4.1 20:28:17 10° S 20:34:34 88° E 20:40:58 10° N
Meteor 2-4 Rocket 3.9 20:30:23 10° N 20:35:50 53° ENE 20:41:24 10° SSE
CZ-2D R/B 3.6 20:34:12 10° S 20:38:03 68° W 20:41:54 10° NNW
Okean 2 Rocket 4.0 20:33:41 10° SSW 20:38:05 54° W 20:42:33 10° N
ATLAS 2AS CENTAUR R/B 3.3 20:32:19 10° S 20:39:32 47° ESE 20:47:10 10° NE
Meteor 1-13 Rocket 4.4 20:38:29 10° N 20:44:29 86° E 20:50:25 10° S
BREEZE-M DEB (TANK) 2.6 20:42:09 10° SW 20:44:57 61° SE 20:52:27 10° ENE
CZ-4B DEB 4.4 20:43:53 13° E 20:45:01 16° ENE 20:46:50 10° NNE
BREEZE-M DEB (TANK) 3.8 20:43:54 10° WNW 20:47:08 53° SSW 20:59:04 11° SE
NOSS 2-3 (E) 3.8 20:45:25 10° SSW 20:50:02 67° ESE 20:55:27 10° NE
Helios 1B rocket 3.3 20:50:21 10° NE 20:53:58 29° E 20:57:34 10° SSE
Resurs 1-3 4.3 20:52:11 10° S 20:56:28 56° W 21:00:49 10° NNW
USA 186 2.7 20:53:21 10° S 20:56:38 51° W 20:59:56 10° NNW
Lacrosse 5 1.9 20:53:30 10° SSW 20:58:27 55° SE 21:03:25 10° NE
Cosmos 1850 Rocket 4.1 20:54:08 10° NNW 20:59:30 83° WSW 21:04:47 10° SSE
Cosmos 1420 Rocket 4.5 20:54:45 10° SSW 20:59:53 65° WNW 21:05:04 10° NNE
Atlas Centaur 2 4.1 20:57:16 10° WSW 21:04:03 28° SSW 21:08:53 15° SE
SL-8 R/B 4.1 21:01:57 10° WNW 21:06:41 57° NNE 21:10:16 17° E
SeaSat 1 2.4 21:02:33 10° NNE 21:07:30 76° ESE 21:12:25 10° SSW
ARGOS 4.0 21:08:23 19° ESE 21:11:19 32° ENE 21:16:00 10° N
Cosmos 1607 4.0 21:06:45 10° NW 21:13:16 89° SW 21:18:18 18° SSE
Cosmos 220 Rocket 3.9 21:13:19 10° NNW 21:17:38 83° ENE 21:20:29 21° SSE
Okean 1 Rocket 2.9 21:13:33 10° S 21:17:53 77° E 21:22:17 10° NNE
Cosmos 1300 Rocket 3.8 21:14:34 10° SSW 21:18:51 69° W 21:23:09 10° N
Cosmos 2263 Rocket 2.4 21:13:22 10° NNW 21:19:03 71° WSW 21:23:58 14° SSE
Cosmos 1025 Rocket 3.0 21:16:38 10° N 21:20:52 60° E 21:23:14 25° SSE
Cosmos 2278 Rocket 4.2 21:18:51 10° N 21:21:58 15° NE 21:24:48 11° ENE
Okean 2 3.5 21:18:56 10° N 21:22:58 53° E 21:24:45 29° SE
NOSS 2-3 (C) 4.3 21:19:03 10° SW 21:23:46 68° NW 21:29:20 10° NNE
Cosmos 2322 Rocket 3.0 21:18:16 10° SW 21:23:52 56° WNW 21:29:28 10° NNE
YAOGAN 6 2.7 21:22:13 18° S 21:24:44 72° WSW 21:28:16 10° NNW
Meteor 1-11 Rocket 4.5 21:19:25 10° SSW 21:25:09 56° WNW 21:30:46 10° N
Cosmos 1844 Rocket 3.7 21:20:52 10° N 21:25:58 33° NE 21:28:30 23° E
Tiangong 1 1.9 21:24:10 10° W 21:26:40 30° SSW 21:26:47 30° SSW
Cosmos 1818 4.4 21:29:42 28° ESE 21:29:58 28° ESE 21:34:32 10° NE
Cosmos 2237 4.5 21:24:49 10° S 21:30:09 44° ESE 21:35:32 10° NE
Okean 1-7 Rocket 3.5 21:25:58 10° N 21:30:29 73° E 21:32:58 26° SSE
Cosmos 2266 Rocket 4.1 21:25:59 10° SSW 21:32:00 74° W 21:38:04 10° N
Resurs 01 Rocket 4.0 21:29:13 10° SW 21:32:41 22° W 21:36:11 10° NW
Spot 1 4.5 21:29:50 19° SSE 21:33:38 88° WSW 21:38:42 10° NNW
USA 238 DEB 3.9 21:28:51 10° NNW 21:35:56 68° NE 21:39:57 28° SE
USA 238 3.9 21:28:57 10° NNW 21:36:02 68° NE 21:40:03 28° SE
SL-16 R/B 3.4 21:30:42 10° SW 21:36:07 45° WNW 21:41:34 10° NNE
Abrixas rocket 3.4 21:33:03 10° WNW 21:36:08 36° N 21:37:17 27° NE
Cosmos 1515 3.6 21:33:05 10° N 21:36:54 64° E 21:37:54 44° SE
Cosmos 2315 Rocket 4.0 21:32:19 10° N 21:38:37 87° E 21:43:24 18° S
Terra 3.6 21:38:02 16° ENE 21:38:41 16° ENE 21:41:37 10° NNE
Cosmos 1975 3.4 21:40:38 36° E 21:40:38 36° E 21:44:10 10° NNE
MetOp-B 4.1 21:38:09 30° SE 21:40:49 66° ENE 21:46:08 10° N
Cosmos 2219 Rocket 3.5 21:42:46 22° E 21:42:46 22° E 21:46:01 10° NE
EXPRESS MD2 4.4 21:40:26 10° W 21:43:21 42° N 21:48:41 10° ENE
Nadezhda 2 Rocket 4.4 21:38:09 10° S 21:44:17 83° E 21:50:33 10° N
Helios 1A 3.7 21:41:23 18° S 21:44:19 53° W 21:48:30 10° NNW
Cosmos 2322 3.6 21:41:38 10° SSW 21:47:16 79° ESE 21:52:58 10° NNE
ERS-1 Rocket 2.9 21:46:40 30° SSE 21:49:12 90° WNW 21:54:16 10° NNW
ATLAS 3B R/B 2.5 21:44:00 10° NW 21:50:47 89° SW 21:53:55 34° SSE
USA 245 3.8 21:51:09 43° SE 21:52:29 60° ENE 21:56:37 10° N
Meteor 1-29 3.2 21:49:17 10° N 21:52:42 66° WNW 21:54:01 34° SSW
Cosmos 1500 3.1 21:52:06 58° SSE 21:52:45 74° E 21:56:38 10° NNE
Cosmos 2360 Rocket 2.4 21:50:48 10° SSW 21:56:26 74° WNW 22:02:05 10° NNE
COSMOS 2428 2.8 21:55:48 32° SSE 21:58:12 53° ESE 22:03:46 10° NNE
Cosmos 1745 Rocket 4.2 22:01:11 40° SE 22:02:35 47° E 22:08:27 10° NNE
Cosmos 1844 4.1 21:59:00 10° NNW 22:04:31 49° ENE 22:05:53 41° E
H-2A R/B 1.9 22:08:23 54° SE 22:09:20 66° ENE 22:14:17 10° N
Cosmos 1892 Rocket 3.4 22:05:24 10° N 22:09:51 90° WNW 22:10:26 67° S
Cosmos 2333 Rocket 3.3 22:13:04 28° ENE 22:13:04 28° ENE 22:16:30 10° NE
NOSS 3-2 (C) 4.3 22:05:30 10° NNW 22:12:47 55° NE 22:16:02 35° ESE
Cosmos 1238 Rocket 4.0 22:06:10 10° N 22:12:56 86° W 22:15:42 37° S
Cosmos 1437 Rocket 4.0 22:19:12 32° NE 22:19:12 32° NE 22:21:33 10° NNE
Cosmos 2333 4.0 22:16:47 43° S 22:18:38 72° ESE 22:24:15 10° NNE
Cosmos 1302 Rocket 4.0 22:19:34 26° SSW 22:22:35 80° WNW 22:27:53 10° NNE
Cosmos 1544 Rocket 3.5 22:24:22 76° SW 22:24:39 82° W 22:29:08 10° N
Cosmos 1486 Rocket 4.1 22:19:59 10° NNW 22:25:13 71° WSW 22:26:11 57° SSW
Cosmos 1386 Rocket 4.5 22:25:46 54° ESE 22:26:33 58° E 22:32:42 10° NNE
Aureole 3 Rocket 4.4 22:19:02 10° NNW 22:27:29 74° W 22:30:15 38° S
Cosmos 2237 Rocket 3.7 22:30:37 22° ENE 22:30:37 22° ENE 22:33:02 10° NE
Cosmos 405 4.0 22:28:31 44° WNW 22:28:31 44° WNW 22:31:48 10° N
ATLAS 2AS CENTAUR R/B 3.9 22:23:03 10° WSW 22:30:36 49° NW 22:38:29 10° NNE
GP-B 4.1 22:29:32 10° NNE 22:32:32 36° NE 22:32:32 36° NE
SPOT 5 3.1 22:33:36 54° SW 22:34:16 59° WSW 22:38:52 10° NNW
BREEZE M DEB (TANK) 3.5 22:29:36 10° WSW 22:33:38 36° WSW 22:33:38 36° WSW
Cosmos 1455 Rocket 3.2 22:37:05 69° W 22:37:05 69° W 22:41:32 10° N
Cosmos 1666 4.3 22:39:56 29° NNE 22:39:56 29° NNE 22:41:57 10° NNE
CENTAUR R/B 3.9 22:32:48 10° NNW 22:39:57 39° NE 22:43:21 28° E
NOSS 3-4 (A) 3.5 22:41:27 57° E 22:41:27 57° E 22:47:11 10° NE
NOSS 3-4 (C) 3.6 22:41:37 56° E 22:41:37 56° E 22:47:17 10° NE
Lacrosse 5 3.4 22:36:59 10° W 22:41:38 35° NNW 22:46:17 10° NE
SL-8 R/B 4.5 22:44:36 10° WNW 22:48:14 43° WSW 22:48:14 43° WSW
ARGOS 4.3 22:49:54 30° SW 22:51:27 36° W 22:56:23 10° NNW
Nadezhda 1 Rocket 4.0 22:45:41 10° N 22:52:00 78° W 22:53:09 61° SSW
Timation 1 Rocket 4.3 22:47:05 10° NNW 22:53:03 67° ENE 22:53:16 66° ENE
Cosmos 1743 4.3 22:56:16 34° NNW 22:56:16 34° NNW 22:58:44 10° N
Landsat 7 4.3 23:01:05 58° WNW 23:01:05 58° WNW 23:05:20 10° NNW
Meteor 1-21 4.2 22:55:31 10° NNW 23:01:10 79° W 23:01:12 79° WSW
DMSP B5D2-2 4.2 22:57:28 10° N 23:02:44 72° WNW 23:02:48 72° W
Cosmos 1354 Rocket 4.3 22:57:40 10° NNW 23:02:44 63° W 23:02:44 63° W
Cosmos 2278 Rocket 2.2 23:01:20 10° NNW 23:06:39 73° NNE 23:06:39 73° NNE
Cosmos 1844 Rocket 3.5 23:04:39 10° NW 23:09:55 40° WSW 23:10:09 40° WSW
Cosmos 1709 Rocket 3.9 23:10:41 75° ENE 23:10:41 75° ENE 23:16:37 10° N
Cosmos 2181 Rocket 4.1 23:04:23 10° N 23:10:38 65° ENE 23:10:38 65° ENE
Cosmos 1818 4.4 23:10:06 23° WSW 23:13:18 48° NW 23:18:34 10° NNE
Terra 2.6 23:16:55 50° NW 23:16:55 50° NW 23:20:40 10° NNW
H-2A R/B 3.5 23:23:50 36° N 23:23:50 36° N 23:26:28 10° NNW
SL-19 R/B 4.5 23:16:11 10° NNE 23:22:01 75° NE 23:22:01 75° NE
NOSS 3-2 (A) 4.3 23:17:22 10° NW 23:24:43 54° WSW 23:25:38 52° SW
CZ-2C R/B 4.5 23:26:25 27° NNE 23:26:25 27° NNE 23:29:12 10° N
Cosmos 2219 Rocket 2.8 23:24:26 49° W 23:25:12 53° WNW 23:30:45 10° NNE
CZ-2C R/B 4.4 23:20:42 10° NE 23:22:55 21° NE 23:22:55 21° NE
Meteor 2-9 Rocket 4.5 23:27:37 67° NW 23:27:37 67° NW 23:32:50 10° N
BREEZE M DEB (TANK) 4.5 23:17:19 10° WSW 23:34:35 75° NNW 23:36:24 45° NE
SL-16 R/B 3.8 23:39:45 25° NE 23:39:45 25° NE 23:42:14 10° NE
ATLAS 3B R/B 4.5 23:36:38 10° WNW 23:40:27 16° WSW 23:41:11 16° WSW
Meteor 2-5 Rocket 4.5 23:41:04 10° N 23:45:41 48° NNE 23:45:41 48° NNE
H-2A R/B 4.3 23:49:01 15° W 23:49:11 15° W 23:52:00 10° NW
NOSS 0 Rocket 4.5 23:51:55 52° WNW 23:52:25 53° WNW 23:58:32 10° NNE
ATLAS CENTAUR R/B 4.1 23:52:35 10° NNW 23:53:18 15° NNW 23:53:18 15° NNW
